KGAO

Details ICAO KGAO
Name SOUTH LAFOURCHE
Region United States
Timezone America/Chicago (UTC-5.0)
Plans Departing 3
Arriving 6
Stats Elevation 1 ft / 0 m (AMSL)
Location 29.444822° -90.261117°
Runways 1
Magnetic Variation 0.733° W
Sunrise 2018-05-20 11:07:22 UTC / 2018-05-20 06:07:22 Local
Sunset 2018-05-21 00:50:39 UTC / 2018-05-20 19:50:39 Local
Advertisement - Login to hide

Runways

ID Width Length Bearing (true) Bearing (mag) Surface Threshold Offset Overrun Length
18 75 ft / 23 m 3,814 ft / 1,162 m 180.58° 181.31° Asphalt 0 ft / 0 m 0 ft / 0 m
36 75 ft / 23 m 3,814 ft / 1,162 m 0.58° 1.31° Asphalt 0 ft / 0 m 0 ft / 0 m

Map

Weather


0- 5 10 15 20 25 30 35+ Temperature / ° C

Clouds and Precipitation
Forecast for 2018-05-21 00:00 UTC. Updated 17 minutes ago

Ground ~20,000 ft ~40,000 ft Winds

METAR

KGAO 202335Z AUTO 12004KT 10SM SCT028 29/21 A2999 RMK AO2 T02880205

TAF

Not found

Frequencies

Recorded 118.17 MHz AWOS 3
Approach 123.85 MHz NEW ORLEANS APP/DEP
Unicom 123.00 MHz UNICOM CTAF
Warning: Do not use this data for real-world aviation or navigation. No guarantee of current accuracy is given.